Time,TemperatureF,DewpointF,PressureIn,WindDirection,WindDirectionDegrees,WindSpeedMPH,WindSpeedGustMPH,Humidity,HourlyPrecipIn,Conditions,Clouds,dailyrainin,SoftwareType,DateUTC
2013-08-22 00:02:00,66.9,65.5,29.68,East,90,0.0,3.0,95,0.00,,,0.28,meteohub,2013-08-22 06:02:00,
2013-08-22 00:07:00,67.1,65.7,29.67,East,90,0.0,3.0,95,0.00,,,0.00,meteohub,2013-08-22 06:07:00,
2013-08-22 00:12:00,67.3,65.8,29.66,East,90,2.0,3.0,95,0.00,,,0.00,meteohub,2013-08-22 06:12:00,
2013-08-22 00:17:00,67.5,66.0,29.65,East,90,4.0,4.0,95,0.00,,,0.00,meteohub,2013-08-22 06:17:00,
2013-08-22 00:22:00,67.5,66.0,29.65,East,90,3.0,4.0,95,0.00,,,0.00,meteohub,2013-08-22 06:22:00,
2013-08-22 00:27:00,67.5,65.7,29.65,SE,135,5.0,5.0,94,0.00,,,0.00,meteohub,2013-08-22 06:27:00,
2013-08-22 00:32:00,67.5,65.7,29.64,SE,135,5.0,5.0,94,0.00,,,0.00,meteohub,2013-08-22 06:32:00,
2013-08-22 00:37:00,67.5,65.7,29.64,SE,135,0.0,5.0,94,0.00,,,0.00,meteohub,2013-08-22 06:37:00,
2013-08-22 00:42:00,67.3,65.5,29.63,East,90,5.0,5.0,94,0.00,,,0.00,meteohub,2013-08-22 06:42:00,
2013-08-22 00:47:00,67.1,65.3,29.63,East,90,4.0,6.0,94,0.00,,,0.00,meteohub,2013-08-22 06:47:00,
2013-08-22 00:52:00,66.9,65.1,29.63,SE,135,4.0,8.0,94,0.00,,,0.00,meteohub,2013-08-22 06:52:00,
2013-08-22 00:57:00,66.7,65.3,29.63,SE,135,1.0,8.0,95,0.00,,,0.00,meteohub,2013-08-22 06:57:00,
2013-08-22 01:02:00,66.7,65.3,29.63,SSE,158,0.0,8.0,95,0.00,,,0.00,meteohub,2013-08-22 07:02:00,
2013-08-22 01:07:00,66.7,65.3,29.63,SE,135,3.0,4.0,95,0.00,,,0.00,meteohub,2013-08-22 07:07:00,
2013-08-22 01:12:00,66.7,65.3,29.63,South,180,2.0,4.0,95,0.00,,,0.00,meteohub,2013-08-22 07:12:00,
2013-08-22 01:17:00,66.7,65.3,29.62,East,90,6.0,6.0,95,0.00,,,0.00,meteohub,2013-08-22 07:17:00,
2013-08-22 01:22:00,67.3,65.8,29.62,East,90,6.0,8.0,95,0.00,,,0.00,meteohub,2013-08-22 07:22:00,
2013-08-22 01:27:00,67.6,66.2,29.62,East,90,8.0,8.0,95,0.00,,,0.00,meteohub,2013-08-22 07:27:00,
2013-08-22 01:32:00,68.0,66.2,29.62,NE,45,8.0,11.0,94,0.00,,,0.00,meteohub,2013-08-22 07:32:00,
2013-08-22 01:37:00,68.5,66.2,29.62,NE,45,8.0,11.0,92,0.00,,,0.00,meteohub,2013-08-22 07:37:00,
2013-08-22 01:42:00,68.5,65.8,29.61,East,90,7.0,11.0,91,0.00,,,0.00,meteohub,2013-08-22 07:42:00,
2013-08-22 01:47:00,68.4,65.3,29.62,East,90,6.0,13.0,90,0.00,,,0.00,meteohub,2013-08-22 07:47:00,
2013-08-22 01:52:00,68.0,64.9,29.62,SE,135,4.0,13.0,90,0.00,,,0.00,meteohub,2013-08-22 07:52:00,
2013-08-22 01:57:00,67.8,65.1,29.62,East,90,0.0,13.0,91,0.00,,,0.00,meteohub,2013-08-22 07:57:00,
2013-08-22 02:02:00,67.5,65.1,29.61,SE,135,1.0,7.0,92,0.00,,,0.00,meteohub,2013-08-22 08:02:00,
2013-08-22 02:07:00,67.3,64.9,29.62,East,90,0.0,5.0,92,0.00,,,0.00,meteohub,2013-08-22 08:07:00,
2013-08-22 02:12:00,66.9,64.8,29.62,SE,135,1.0,5.0,93,0.00,,,0.00,meteohub,2013-08-22 08:12:00,
2013-08-22 02:17:00,66.7,64.6,29.63,SE,135,3.0,4.0,93,0.00,,,0.00,meteohub,2013-08-22 08:17:00,
2013-08-22 02:23:00,66.6,64.8,29.62,East,90,0.0,3.0,94,0.00,,,0.00,meteohub,2013-08-22 08:23:00,
2013-08-22 02:28:00,66.6,64.8,29.62,East,90,4.0,4.0,94,0.00,,,0.00,meteohub,2013-08-22 08:28:00,
2013-08-22 02:33:00,66.6,64.8,29.62,ESE,113,4.0,5.0,94,0.00,,,0.00,meteohub,2013-08-22 08:33:00,
2013-08-22 02:38:00,66.9,65.1,29.62,East,90,3.0,5.0,94,0.00,,,0.00,meteohub,2013-08-22 08:38:00,
2013-08-22 02:43:00,67.1,65.3,29.62,East,90,2.0,5.0,94,0.00,,,0.00,meteohub,2013-08-22 08:43:00,
2013-08-22 02:48:00,67.1,64.9,29.62,SE,135,4.0,4.0,93,0.00,,,0.00,meteohub,2013-08-22 08:48:00,
2013-08-22 02:53:00,67.3,65.1,29.62,East,90,1.0,4.0,93,0.00,,,0.00,meteohub,2013-08-22 08:53:00,
2013-08-22 02:58:00,67.3,65.1,29.62,SE,135,3.0,4.0,93,0.00,,,0.00,meteohub,2013-08-22 08:58:00,
2013-08-22 03:03:00,67.5,65.1,29.62,East,90,4.0,7.0,92,0.00,,,0.00,meteohub,2013-08-22 09:03:00,
2013-08-22 03:08:00,67.6,64.9,29.61,SE,135,3.0,7.0,91,0.00,,,0.00,meteohub,2013-08-22 09:08:00,
2013-08-22 03:13:00,67.8,64.8,29.62,East,90,5.0,8.0,90,0.00,,,0.00,meteohub,2013-08-22 09:13:00,
2013-08-22 03:18:00,68.0,64.6,29.60,SE,135,0.0,8.0,89,0.00,,,0.00,meteohub,2013-08-22 09:18:00,
2013-08-22 03:23:00,68.0,64.6,29.61,East,90,3.0,8.0,89,0.00,,,0.00,meteohub,2013-08-22 09:23:00,
2013-08-22 03:28:00,68.0,64.6,29.60,NE,45,4.0,8.0,89,0.00,,,0.00,meteohub,2013-08-22 09:28:00,
2013-08-22 03:33:00,67.5,64.4,29.61,North,0,4.0,8.0,90,0.00,,,0.00,meteohub,2013-08-22 09:33:00,
2013-08-22 03:38:00,67.3,64.6,29.61,East,90,6.0,7.0,91,0.00,,,0.00,meteohub,2013-08-22 09:38:00,
2013-08-22 03:43:00,67.3,64.2,29.61,East,90,4.0,7.0,90,0.00,,,0.00,meteohub,2013-08-22 09:43:00,
2013-08-22 03:48:00,67.3,64.2,29.61,East,90,3.0,7.0,90,0.00,,,0.00,meteohub,2013-08-22 09:48:00,
2013-08-22 03:53:00,67.5,64.4,29.60,SE,135,3.0,7.0,90,0.00,,,0.00,meteohub,2013-08-22 09:53:00,
2013-08-22 03:58:00,67.5,64.4,29.60,East,90,4.0,4.0,90,0.00,,,0.00,meteohub,2013-08-22 09:58:00,
2013-08-22 04:03:00,67.5,64.4,29.61,East,90,5.0,6.0,90,0.00,,,0.00,meteohub,2013-08-22 10:03:00,
2013-08-22 04:08:00,67.6,64.9,29.62,NE,45,7.0,7.0,91,0.00,,,0.00,meteohub,2013-08-22 10:08:00,
2013-08-22 04:13:00,67.6,64.9,29.61,East,90,4.0,7.0,91,0.00,,,0.00,meteohub,2013-08-22 10:13:00,
2013-08-22 04:19:00,67.6,64.9,29.61,South,180,4.0,8.0,91,0.00,,,0.00,meteohub,2013-08-22 10:19:00,
2013-08-22 04:24:00,67.6,64.9,29.61,NE,45,5.0,10.0,91,0.00,,,0.00,meteohub,2013-08-22 10:24:00,
2013-08-22 04:29:00,67.6,65.3,29.61,NE,45,7.0,10.0,92,0.00,,,0.00,meteohub,2013-08-22 10:29:00,
2013-08-22 04:34:00,67.6,65.3,29.61,East,90,4.0,10.0,92,0.00,,,0.00,meteohub,2013-08-22 10:34:00,
2013-08-22 04:39:00,67.6,65.3,29.62,East,90,3.0,10.0,92,0.00,,,0.00,meteohub,2013-08-22 10:39:00,
2013-08-22 04:44:00,67.5,65.1,29.62,NE,45,10.0,10.0,92,0.00,,,0.00,meteohub,2013-08-22 10:44:00,
2013-08-22 04:49:00,67.8,64.8,29.62,East,90,3.0,10.0,90,0.00,,,0.00,meteohub,2013-08-22 10:49:00,
2013-08-22 06:27:00,68.2,64.4,29.64,East,90,9.0,9.0,88,0.00,,,0.00,meteohub,2013-08-22 12:27:00,
2013-08-22 06:32:00,68.5,64.6,29.65,North,0,8.0,9.0,87,0.00,,,0.00,meteohub,2013-08-22 12:32:00,
2013-08-22 06:37:00,68.5,64.6,29.65,East,90,6.0,9.0,87,0.01,,,0.01,meteohub,2013-08-22 12:37:00,
2013-08-22 06:42:00,68.7,64.8,29.65,NE,45,1.0,9.0,87,0.01,,,0.01,meteohub,2013-08-22 12:42:00,
2013-08-22 06:47:00,69.1,64.8,29.65,NE,45,4.0,9.0,86,0.01,,,0.01,meteohub,2013-08-22 12:47:00,
2013-08-22 06:52:00,69.4,65.1,29.65,East,90,8.0,8.0,86,0.01,,,0.01,meteohub,2013-08-22 12:52:00,
2013-08-22 06:57:00,69.6,64.9,29.66,East,90,11.0,11.0,85,0.01,,,0.01,meteohub,2013-08-22 12:57:00,
2013-08-22 07:01:00,69.6,64.9,29.67,NE,45,7.0,16.0,85,0.01,,,0.01,meteohub,2013-08-22 13:01:00,
2013-08-22 07:06:00,69.6,64.9,29.67,North,0,11.0,16.0,85,0.01,,,0.01,meteohub,2013-08-22 13:06:00,
2013-08-22 07:11:00,69.6,64.9,29.67,NE,45,10.0,16.0,85,0.01,,,0.01,meteohub,2013-08-22 13:11:00,
2013-08-22 07:16:00,69.6,64.9,29.66,North,0,12.0,15.0,85,0.01,,,0.01,meteohub,2013-08-22 13:16:00,
2013-08-22 07:21:00,69.8,64.8,29.66,East,90,7.0,15.0,84,0.01,,,0.01,meteohub,2013-08-22 13:21:00,
2013-08-22 07:26:00,70.2,64.8,29.66,NE,45,9.0,15.0,83,0.01,,,0.01,meteohub,2013-08-22 13:26:00,
2013-08-22 07:31:00,70.3,64.9,29.66,NE,45,10.0,12.0,83,0.01,,,0.01,meteohub,2013-08-22 13:31:00,
2013-08-22 07:36:00,70.7,65.3,29.66,NE,45,7.0,11.0,83,0.00,,,0.01,meteohub,2013-08-22 13:36:00,
2013-08-22 07:41:00,71.6,65.5,29.64,South,180,2.0,11.0,81,0.00,,,0.01,meteohub,2013-08-22 13:41:00,
2013-08-22 07:46:00,73.6,66.4,29.66,North,0,4.0,11.0,78,0.00,,,0.01,meteohub,2013-08-22 13:46:00,
2013-08-22 07:51:00,74.3,66.2,29.65,SE,135,4.0,8.0,76,0.00,,,0.01,meteohub,2013-08-22 13:51:00,
2013-08-22 07:56:00,74.3,65.8,29.65,East,90,4.0,6.0,75,0.00,,,0.01,meteohub,2013-08-22 13:56:00,
2013-08-22 08:01:00,74.8,66.0,29.65,South,180,4.0,8.0,74,0.00,,,0.01,meteohub,2013-08-22 14:01:00,
2013-08-22 08:06:00,75.7,66.4,29.64,NW,315,2.0,8.0,73,0.00,,,0.01,meteohub,2013-08-22 14:06:00,
2013-08-22 08:12:00,76.5,66.7,29.65,East,90,3.0,8.0,72,0.00,,,0.01,meteohub,2013-08-22 14:12:00,
2013-08-22 08:17:00,75.7,65.3,29.65,NE,45,7.0,8.0,70,0.00,,,0.01,meteohub,2013-08-22 14:17:00,
2013-08-22 08:22:00,74.5,65.7,29.64,NE,45,5.0,8.0,74,0.00,,,0.01,meteohub,2013-08-22 14:22:00,
2013-08-22 08:27:00,74.5,65.7,29.64,SE,135,6.0,8.0,74,0.00,,,0.01,meteohub,2013-08-22 14:27:00,
2013-08-22 08:32:00,74.7,65.8,29.65,South,180,5.0,11.0,74,0.00,,,0.01,meteohub,2013-08-22 14:32:00,
2013-08-22 08:37:00,75.2,66.0,29.64,NE,45,8.0,11.0,73,0.00,,,0.01,meteohub,2013-08-22 14:37:00,
2013-08-22 08:42:00,75.4,65.7,29.65,NNE,23,4.0,11.0,72,0.00,,,0.01,meteohub,2013-08-22 14:42:00,
2013-08-22 08:47:00,76.1,65.1,29.64,NE,45,5.0,8.0,69,0.00,,,0.01,meteohub,2013-08-22 14:47:00,
2013-08-22 08:52:00,76.1,66.0,29.64,North,0,12.0,12.0,71,0.00,,,0.01,meteohub,2013-08-22 14:52:00,
2013-08-22 08:57:00,75.2,65.5,29.64,NE,45,11.0,15.0,72,0.00,,,0.01,meteohub,2013-08-22 14:57:00,
2013-08-22 09:02:00,74.7,66.2,29.64,East,90,7.0,15.0,75,0.00,,,0.01,meteohub,2013-08-22 15:02:00,
2013-08-22 09:07:00,75.4,66.2,29.63,North,0,10.0,15.0,73,0.00,,,0.01,meteohub,2013-08-22 15:07:00,
2013-08-22 09:12:00,75.7,66.0,29.63,NE,45,6.0,14.0,72,0.00,,,0.01,meteohub,2013-08-22 15:12:00,
2013-08-22 09:17:00,75.7,65.7,29.63,NE,45,8.0,14.0,71,0.00,,,0.01,meteohub,2013-08-22 15:17:00,
2013-08-22 09:22:00,74.8,66.4,29.63,North,0,16.0,16.0,75,0.00,,,0.01,meteohub,2013-08-22 15:22:00,
2013-08-22 09:27:00,74.8,66.4,29.63,NE,45,17.0,17.0,75,0.00,,,0.01,meteohub,2013-08-22 15:27:00,
2013-08-22 09:32:00,75.6,66.7,29.63,NE,45,16.0,17.0,74,0.00,,,0.01,meteohub,2013-08-22 15:32:00,
2013-08-22 09:37:00,76.5,66.4,29.63,SE,135,8.0,17.0,71,0.00,,,0.01,meteohub,2013-08-22 15:37:00,
2013-08-22 09:42:00,76.1,66.0,29.63,NE,45,12.0,17.0,71,0.00,,,0.01,meteohub,2013-08-22 15:42:00,
2013-08-22 09:47:00,75.7,66.0,29.63,NE,45,14.0,17.0,72,0.00,,,0.01,meteohub,2013-08-22 15:47:00,
2013-08-22 09:52:00,75.9,66.2,29.63,NE,45,10.0,20.0,72,0.00,,,0.01,meteohub,2013-08-22 15:52:00,
2013-08-22 09:57:00,76.3,66.2,29.62,NE,45,13.0,20.0,71,0.00,,,0.01,meteohub,2013-08-22 15:57:00,
2013-08-22 10:02:00,76.1,66.0,29.63,NE,45,12.0,16.0,71,0.00,,,0.01,meteohub,2013-08-22 16:02:00,
2013-08-22 10:07:00,76.1,66.4,29.62,NE,45,13.0,19.0,72,0.00,,,0.01,meteohub,2013-08-22 16:07:00,
2013-08-22 10:12:00,77.0,66.9,29.62,North,0,15.0,19.0,71,0.00,,,0.01,meteohub,2013-08-22 16:12:00,
2013-08-22 10:17:00,76.8,66.7,29.62,East,90,8.0,19.0,71,0.00,,,0.01,meteohub,2013-08-22 16:17:00,
2013-08-22 10:22:00,76.8,66.7,29.61,North,0,12.0,16.0,71,0.00,,,0.01,meteohub,2013-08-22 16:22:00,
2013-08-22 10:27:00,76.8,66.7,29.61,NE,45,11.0,16.0,71,0.00,,,0.01,meteohub,2013-08-22 16:27:00,
2013-08-22 10:32:00,76.5,66.4,29.61,NE,45,15.0,17.0,71,0.00,,,0.01,meteohub,2013-08-22 16:32:00,
2013-08-22 10:37:00,76.3,66.6,29.61,NE,45,15.0,17.0,72,0.00,,,0.01,meteohub,2013-08-22 16:37:00,
2013-08-22 10:42:00,75.6,65.8,29.60,NE,45,11.0,17.0,72,0.00,,,0.01,meteohub,2013-08-22 16:42:00,
2013-08-22 10:47:00,75.6,66.7,29.61,North,0,13.0,16.0,74,0.00,,,0.01,meteohub,2013-08-22 16:47:00,
2013-08-22 10:52:00,76.1,67.3,29.60,NE,45,15.0,16.0,74,0.00,,,0.01,meteohub,2013-08-22 16:52:00,
2013-08-22 10:57:00,76.8,67.8,29.61,North,0,9.0,17.0,74,0.00,,,0.01,meteohub,2013-08-22 16:57:00,
2013-08-22 11:02:00,77.0,67.3,29.60,NE,45,14.0,17.0,72,0.00,,,0.01,meteohub,2013-08-22 17:02:00,
2013-08-22 11:07:00,76.1,67.3,29.61,NE,45,14.0,17.0,74,0.00,,,0.01,meteohub,2013-08-22 17:07:00,
2013-08-22 11:12:00,75.0,67.3,29.59,ENE,68,13.0,15.0,77,0.00,,,0.01,meteohub,2013-08-22 17:12:00,
2013-08-22 11:17:00,74.5,67.5,29.59,North,0,13.0,15.0,79,0.00,,,0.01,meteohub,2013-08-22 17:17:00,
2013-08-22 11:22:00,73.4,67.6,29.59,NE,45,12.0,15.0,82,0.00,,,0.01,meteohub,2013-08-22 17:22:00,
2013-08-22 11:27:00,72.7,67.3,29.59,NE,45,15.0,19.0,83,0.00,,,0.01,meteohub,2013-08-22 17:27:00,
2013-08-22 11:32:00,72.1,67.6,29.60,North,0,13.0,19.0,86,0.00,,,0.01,meteohub,2013-08-22 17:32:00,
2013-08-22 11:37:00,72.0,68.5,29.59,NE,45,9.0,18.0,89,0.01,,,0.02,meteohub,2013-08-22 17:37:00,
2013-08-22 11:42:00,72.1,68.4,29.58,NE,45,7.0,17.0,88,0.02,,,0.04,meteohub,2013-08-22 17:42:00,
2013-08-22 11:47:00,72.5,68.7,29.57,NE,45,11.0,15.0,88,0.02,,,0.04,meteohub,2013-08-22 17:47:00,
2013-08-22 11:52:00,73.2,69.1,29.58,North,0,11.0,15.0,87,0.02,,,0.04,meteohub,2013-08-22 17:52:00,
2013-08-22 11:57:00,73.8,68.9,29.57,NE,45,9.0,13.0,85,0.02,,,0.04,meteohub,2013-08-22 17:57:00,
2013-08-22 12:03:00,74.3,69.4,29.57,NE,45,11.0,14.0,85,0.02,,,0.04,meteohub,2013-08-22 18:03:00,
2013-08-22 12:08:00,74.3,69.8,29.56,NE,45,7.0,14.0,86,0.02,,,0.04,meteohub,2013-08-22 18:08:00,
2013-08-22 12:13:00,74.5,69.6,29.57,NE,45,11.0,14.0,85,0.02,,,0.04,meteohub,2013-08-22 18:13:00,
2013-08-22 12:18:00,74.7,69.8,29.55,NE,45,9.0,14.0,85,0.02,,,0.04,meteohub,2013-08-22 18:18:00,
2013-08-22 12:23:00,74.5,69.6,29.55,NE,45,11.0,13.0,85,0.02,,,0.04,meteohub,2013-08-22 18:23:00,
2013-08-22 12:28:00,74.7,69.8,29.54,NE,45,14.0,14.0,85,0.02,,,0.04,meteohub,2013-08-22 18:28:00,
2013-08-22 12:33:00,74.8,70.0,29.53,NE,45,12.0,14.0,85,0.01,,,0.04,meteohub,2013-08-22 18:33:00,
2013-08-22 12:38:00,74.8,69.3,29.53,NE,45,12.0,15.0,83,0.01,,,0.04,meteohub,2013-08-22 18:38:00,
2013-08-22 12:43:00,75.2,68.9,29.54,East,90,11.0,15.0,81,0.00,,,0.04,meteohub,2013-08-22 18:43:00,
2013-08-22 12:48:00,75.9,69.6,29.53,NE,45,11.0,15.0,81,0.00,,,0.04,meteohub,2013-08-22 18:48:00,
2013-08-22 12:53:00,75.4,69.4,29.54,East,90,7.0,12.0,82,0.00,,,0.04,meteohub,2013-08-22 18:53:00,
2013-08-22 12:58:00,75.6,69.3,29.53,NE,45,9.0,12.0,81,0.00,,,0.04,meteohub,2013-08-22 18:58:00,
2013-08-22 13:03:00,75.9,68.9,29.52,NE,45,9.0,11.0,79,0.00,,,0.04,meteohub,2013-08-22 19:03:00,
2013-08-22 13:08:00,76.5,68.7,29.52,East,90,9.0,10.0,77,0.00,,,0.04,meteohub,2013-08-22 19:08:00,
2013-08-22 13:13:00,77.4,68.4,29.52,NE,45,11.0,11.0,74,0.00,,,0.04,meteohub,2013-08-22 19:13:00,
2013-08-22 13:18:00,77.7,68.7,29.51,NE,45,17.0,17.0,74,0.00,,,0.04,meteohub,2013-08-22 19:18:00,
2013-08-22 13:23:00,77.5,67.8,29.52,North,0,16.0,16.0,72,0.00,,,0.04,meteohub,2013-08-22 19:23:00,
2013-08-22 13:28:00,77.4,68.0,29.51,NE,45,15.0,17.0,73,0.00,,,0.04,meteohub,2013-08-22 19:28:00,
2013-08-22 13:33:00,77.4,68.0,29.51,NE,45,20.0,20.0,73,0.00,,,0.04,meteohub,2013-08-22 19:33:00,
2013-08-22 13:38:00,77.5,67.8,29.52,North,0,17.0,19.0,72,0.00,,,0.04,meteohub,2013-08-22 19:38:00,
2013-08-22 13:43:00,77.4,67.6,29.51,NE,45,12.0,20.0,72,0.00,,,0.04,meteohub,2013-08-22 19:43:00,
2013-08-22 13:48:00,77.2,67.8,29.51,East,90,11.0,20.0,73,0.00,,,0.04,meteohub,2013-08-22 19:48:00,
2013-08-22 13:53:00,77.5,67.5,29.51,NE,45,12.0,20.0,71,0.00,,,0.04,meteohub,2013-08-22 19:53:00,
2013-08-22 13:58:00,77.7,67.6,29.49,NE,45,15.0,19.0,71,0.00,,,0.04,meteohub,2013-08-22 19:58:00,
2013-08-22 14:03:00,77.7,67.6,29.50,NE,45,14.0,17.0,71,0.00,,,0.04,meteohub,2013-08-22 20:03:00,
2013-08-22 14:08:00,77.7,66.7,29.49,East,90,18.0,18.0,69,0.00,,,0.04,meteohub,2013-08-22 20:08:00,
2013-08-22 14:13:00,77.7,67.1,29.50,NE,45,17.0,18.0,70,0.00,,,0.04,meteohub,2013-08-22 20:13:00,
2013-08-22 14:18:00,78.1,67.5,29.51,NE,45,15.0,18.0,70,0.00,,,0.04,meteohub,2013-08-22 20:18:00,
2013-08-22 14:23:00,77.7,66.7,29.51,NE,45,21.0,21.0,69,0.00,,,0.04,meteohub,2013-08-22 20:23:00,
2013-08-22 14:28:00,76.5,67.6,29.51,NE,45,20.0,21.0,74,0.00,,,0.04,meteohub,2013-08-22 20:28:00,
2013-08-22 14:33:00,75.9,67.8,29.51,North,0,12.0,21.0,76,0.00,,,0.04,meteohub,2013-08-22 20:33:00,
2013-08-22 14:38:00,75.4,69.8,29.50,North,0,12.0,21.0,83,0.00,,,0.04,meteohub,2013-08-22 20:38:00,
2013-08-22 14:44:00,74.8,68.5,29.51,NE,45,11.0,21.0,81,0.00,,,0.04,meteohub,2013-08-22 20:44:00,
2013-08-22 14:49:00,74.5,68.5,29.50,NE,45,11.0,18.0,82,0.00,,,0.04,meteohub,2013-08-22 20:49:00,
2013-08-22 14:54:00,73.4,68.9,29.51,North,0,11.0,17.0,86,0.00,,,0.04,meteohub,2013-08-22 20:54:00,
2013-08-22 14:59:00,72.3,67.8,29.51,North,0,11.0,17.0,86,0.00,,,0.04,meteohub,2013-08-22 20:59:00,
2013-08-22 15:04:00,71.8,68.0,29.51,North,0,2.0,17.0,88,0.00,,,0.04,meteohub,2013-08-22 21:04:00,
2013-08-22 15:09:00,71.6,68.5,29.51,North,0,7.0,15.0,90,0.00,,,0.04,meteohub,2013-08-22 21:09:00,
2013-08-22 15:14:00,71.4,68.7,29.51,North,0,3.0,15.0,91,0.00,,,0.04,meteohub,2013-08-22 21:14:00,
2013-08-22 15:19:00,71.4,68.7,29.51,NE,45,8.0,13.0,91,0.00,,,0.04,meteohub,2013-08-22 21:19:00,
2013-08-22 15:24:00,71.4,68.9,29.52,North,0,6.0,13.0,92,0.00,,,0.04,meteohub,2013-08-22 21:24:00,
2013-08-22 15:29:00,71.2,68.7,29.52,NE,45,2.0,13.0,92,0.00,,,0.04,meteohub,2013-08-22 21:29:00,
2013-08-22 15:34:00,71.2,68.7,29.52,SE,135,2.0,11.0,92,0.00,,,0.04,meteohub,2013-08-22 21:34:00,
2013-08-22 15:39:00,71.4,68.9,29.52,North,0,10.0,11.0,92,0.00,,,0.04,meteohub,2013-08-22 21:39:00,
2013-08-22 15:44:00,70.9,68.4,29.52,West,270,5.0,6.0,92,0.00,,,0.04,meteohub,2013-08-22 21:44:00,
2013-08-22 15:49:00,70.0,67.8,29.52,North,0,4.0,10.0,93,0.00,,,0.04,meteohub,2013-08-22 21:49:00,
2013-08-22 15:54:00,69.4,67.6,29.53,NE,45,0.0,10.0,94,0.00,,,0.04,meteohub,2013-08-22 21:54:00,
2013-08-22 15:59:00,69.1,67.6,29.53,NE,45,8.0,10.0,95,0.01,,,0.05,meteohub,2013-08-22 21:59:00,
2013-08-22 16:04:00,68.9,67.5,29.53,NW,315,2.0,7.0,95,0.01,,,0.05,meteohub,2013-08-22 22:04:00,
2013-08-22 16:09:00,68.4,67.1,29.53,NW,315,0.0,8.0,96,0.01,,,0.05,meteohub,2013-08-22 22:09:00,
2013-08-22 16:14:00,68.2,66.9,29.53,NW,315,6.0,8.0,96,0.01,,,0.05,meteohub,2013-08-22 22:14:00,
2013-08-22 16:19:00,67.8,66.9,29.53,West,270,5.0,7.0,97,0.04,,,0.07,meteohub,2013-08-22 22:19:00,
2013-08-22 16:24:00,67.6,67.1,29.55,West,270,0.0,8.0,98,0.05,,,0.08,meteohub,2013-08-22 22:24:00,
2013-08-22 16:29:00,67.6,67.1,29.55,West,270,3.0,8.0,98,0.07,,,0.11,meteohub,2013-08-22 22:29:00,
2013-08-22 16:34:00,67.5,67.1,29.56,SW,225,0.0,8.0,99,0.08,,,0.12,meteohub,2013-08-22 22:34:00,
2013-08-22 16:39:00,66.7,66.2,29.55,South,180,6.0,6.0,98,0.11,,,0.14,meteohub,2013-08-22 22:39:00,
2013-08-22 16:45:00,65.8,65.3,29.55,SW,225,5.0,6.0,98,0.18,,,0.21,meteohub,2013-08-22 22:45:00,
2013-08-22 16:50:00,65.3,64.8,29.56,SW,225,5.0,6.0,98,0.27,,,0.26,meteohub,2013-08-22 22:50:00,
2013-08-22 16:55:00,65.1,64.8,29.56,NW,315,3.0,7.0,99,0.30,,,0.33,meteohub,2013-08-22 22:55:00,
2013-08-22 17:00:00,64.9,64.6,29.57,NW,315,0.0,7.0,99,0.37,,,0.41,meteohub,2013-08-22 23:00:00,
2013-08-22 17:05:00,65.1,64.8,29.57,SW,225,0.0,7.0,99,0.38,,,0.43,meteohub,2013-08-22 23:05:00,
2013-08-22 17:10:00,65.5,65.1,29.57,East,90,0.0,7.0,99,0.38,,,0.43,meteohub,2013-08-22 23:10:00,
2013-08-22 17:15:00,65.7,65.3,29.57,West,270,7.0,7.0,99,0.37,,,0.43,meteohub,2013-08-22 23:15:00,
2013-08-22 17:20:00,65.7,65.3,29.58,South,180,1.0,4.0,99,0.37,,,0.44,meteohub,2013-08-22 23:20:00,
2013-08-22 17:25:00,65.7,65.3,29.58,East,90,3.0,7.0,99,0.37,,,0.46,meteohub,2013-08-22 23:25:00,
2013-08-22 17:30:00,65.7,65.3,29.58,West,270,0.0,7.0,99,0.37,,,0.47,meteohub,2013-08-22 23:30:00,
2013-08-22 17:35:00,65.7,65.3,29.59,NW,315,3.0,7.0,99,0.35,,,0.47,meteohub,2013-08-22 23:35:00,
2013-08-22 17:40:00,65.7,65.3,29.60,North,0,0.0,7.0,99,0.33,,,0.48,meteohub,2013-08-22 23:40:00,
2013-08-22 17:45:00,65.5,65.1,29.60,SW,225,0.0,3.0,99,0.26,,,0.50,meteohub,2013-08-22 23:45:00,
2013-08-22 17:50:00,65.5,65.1,29.60,North,0,0.0,3.0,99,0.19,,,0.51,meteohub,2013-08-22 23:50:00,
2013-08-22 17:55:00,65.3,64.9,29.61,East,90,0.0,3.0,99,0.15,,,0.51,meteohub,2013-08-22 23:55:00,
2013-08-22 18:00:00,65.5,65.1,29.62,SE,135,2.0,3.0,99,0.09,,,0.51,meteohub,2013-08-23 00:00:00,
2013-08-22 18:05:00,65.7,65.3,29.61,East,90,4.0,4.0,99,0.08,,,0.52,meteohub,2013-08-23 00:05:00,
2013-08-22 18:10:00,65.8,65.5,29.62,SE,135,4.0,4.0,99,0.09,,,0.56,meteohub,2013-08-23 00:10:00,
2013-08-22 18:15:00,65.5,65.1,29.62,SE,135,0.0,6.0,99,0.13,,,0.69,meteohub,2013-08-23 00:15:00,
2013-08-22 18:20:00,65.1,64.8,29.62,SE,135,0.0,6.0,99,0.24,,,0.71,meteohub,2013-08-23 00:20:00,
2013-08-22 18:25:00,65.1,64.8,29.63,SE,135,0.0,6.0,99,0.24,,,0.71,meteohub,2013-08-23 00:25:00,
2013-08-22 18:30:00,65.5,65.1,29.63,SE,135,5.0,5.0,99,0.24,,,0.71,meteohub,2013-08-23 00:30:00,
2013-08-22 18:35:00,65.5,65.1,29.62,SE,135,5.0,5.0,99,0.22,,,0.71,meteohub,2013-08-23 00:35:00,
2013-08-22 18:40:00,65.7,65.3,29.62,SE,135,4.0,7.0,99,0.21,,,0.71,meteohub,2013-08-23 00:40:00,
2013-08-22 18:45:00,65.8,65.5,29.62,SE,135,0.0,7.0,99,0.21,,,0.71,meteohub,2013-08-23 00:45:00,
2013-08-22 18:50:00,65.8,65.5,29.62,SE,135,4.0,4.0,99,0.20,,,0.71,meteohub,2013-08-23 00:50:00,
2013-08-22 18:55:00,66.0,65.7,29.63,SE,135,6.0,6.0,99,0.20,,,0.71,meteohub,2013-08-23 00:55:00,
2013-08-22 19:00:00,66.0,65.7,29.63,SE,135,5.0,6.0,99,0.19,,,0.71,meteohub,2013-08-23 01:00:00,
2013-08-22 19:05:00,66.2,65.7,29.63,South,180,4.0,6.0,98,0.19,,,0.71,meteohub,2013-08-23 01:05:00,
2013-08-22 19:10:00,66.4,65.8,29.63,SE,135,4.0,6.0,98,0.09,,,0.71,meteohub,2013-08-23 01:10:00,
2013-08-22 19:15:00,66.7,65.8,29.63,East,90,4.0,5.0,97,0.02,,,0.71,meteohub,2013-08-23 01:15:00,
2013-08-22 19:20:00,66.6,65.7,29.63,SE,135,5.0,7.0,97,0.00,,,0.71,meteohub,2013-08-23 01:20:00,
2013-08-22 19:25:00,66.4,65.5,29.63,SE,135,5.0,7.0,97,0.00,,,0.71,meteohub,2013-08-23 01:25:00,
2013-08-22 19:30:00,66.6,65.7,29.64,SE,135,4.0,7.0,97,0.00,,,0.71,meteohub,2013-08-23 01:30:00,
2013-08-22 19:35:00,66.6,65.7,29.63,SE,135,4.0,6.0,97,0.00,,,0.71,meteohub,2013-08-23 01:35:00,
2013-08-22 19:40:00,66.6,65.7,29.64,SE,135,4.0,5.0,97,0.00,,,0.71,meteohub,2013-08-23 01:40:00,
2013-08-22 19:45:00,66.7,65.8,29.65,South,180,3.0,5.0,97,0.00,,,0.71,meteohub,2013-08-23 01:45:00,
2013-08-22 19:50:00,66.7,65.8,29.65,South,180,3.0,6.0,97,0.01,,,0.72,meteohub,2013-08-23 01:50:00,
2013-08-22 19:55:00,66.7,65.5,29.65,SE,135,4.0,6.0,96,0.01,,,0.72,meteohub,2013-08-23 01:55:00,
2013-08-22 20:00:00,66.6,65.3,29.64,SE,135,5.0,6.0,96,0.01,,,0.72,meteohub,2013-08-23 02:00:00,
2013-08-22 20:05:00,66.6,65.3,29.64,South,180,3.0,6.0,96,0.01,,,0.72,meteohub,2013-08-23 02:05:00,
2013-08-22 20:10:00,66.6,65.7,29.65,South,180,2.0,6.0,97,0.01,,,0.72,meteohub,2013-08-23 02:10:00,
2013-08-22 20:15:00,66.6,65.7,29.65,SE,135,1.0,6.0,97,0.01,,,0.72,meteohub,2013-08-23 02:15:00,
2013-08-22 20:20:00,66.4,65.1,29.65,SE,135,0.0,4.0,96,0.01,,,0.72,meteohub,2013-08-23 02:20:00,
2013-08-22 20:25:00,66.2,64.9,29.65,NE,45,0.0,3.0,96,0.01,,,0.72,meteohub,2013-08-23 02:25:00,
2013-08-22 20:30:00,65.8,64.9,29.65,NE,45,2.0,2.0,97,0.01,,,0.72,meteohub,2013-08-23 02:30:00,
2013-08-22 20:36:00,65.7,65.1,29.66,NE,45,1.0,3.0,98,0.01,,,0.72,meteohub,2013-08-23 02:36:00,
2013-08-22 20:41:00,65.7,65.1,29.65,NE,45,2.0,3.0,98,0.01,,,0.72,meteohub,2013-08-23 02:41:00,
2013-08-22 20:46:00,65.7,65.1,29.65,East,90,0.0,3.0,98,0.01,,,0.72,meteohub,2013-08-23 02:46:00,
2013-08-22 20:51:00,65.7,65.3,29.65,East,90,4.0,4.0,99,0.00,,,0.72,meteohub,2013-08-23 02:51:00,
2013-08-22 20:56:00,65.8,65.3,29.65,SE,135,0.0,4.0,98,0.00,,,0.72,meteohub,2013-08-23 02:56:00,
2013-08-22 21:01:00,65.8,65.3,29.65,South,180,0.0,4.0,98,0.00,,,0.72,meteohub,2013-08-23 03:01:00,
2013-08-22 21:06:00,65.8,65.3,29.65,South,180,0.0,4.0,98,0.00,,,0.72,meteohub,2013-08-23 03:06:00,
2013-08-22 21:11:00,65.8,65.3,29.65,SSE,158,1.0,2.0,98,0.00,,,0.72,meteohub,2013-08-23 03:11:00,
2013-08-22 21:16:00,65.7,65.3,29.65,SE,135,3.0,3.0,99,0.00,,,0.72,meteohub,2013-08-23 03:16:00,
2013-08-22 21:21:00,65.5,65.1,29.66,SE,135,0.0,3.0,99,0.00,,,0.72,meteohub,2013-08-23 03:21:00,
2013-08-22 21:26:00,65.5,65.1,29.66,East,90,0.0,3.0,99,0.00,,,0.72,meteohub,2013-08-23 03:26:00,
2013-08-22 21:31:00,65.3,64.9,29.66,East,90,0.0,3.0,99,0.00,,,0.72,meteohub,2013-08-23 03:31:00,
2013-08-22 21:36:00,65.3,64.9,29.67,SE,135,0.0,3.0,99,0.00,,,0.72,meteohub,2013-08-23 03:36:00,
2013-08-22 21:41:00,65.3,64.9,29.66,SE,135,0.0,0.0,99,0.00,,,0.72,meteohub,2013-08-23 03:41:00,
2013-08-22 21:46:00,65.3,64.9,29.66,South,180,0.0,0.0,99,0.00,,,0.72,meteohub,2013-08-23 03:46:00,
2013-08-22 21:51:00,65.1,64.8,29.67,East,90,0.0,0.0,99,0.00,,,0.72,meteohub,2013-08-23 03:51:00,
2013-08-22 21:56:00,65.1,64.8,29.66,East,90,0.0,0.0,99,0.00,,,0.72,meteohub,2013-08-23 03:56:00,
2013-08-22 22:01:00,65.1,64.8,29.65,East,90,0.0,1.0,99,0.00,,,0.72,meteohub,2013-08-23 04:01:00,
2013-08-22 22:02:00,65.1,64.8,29.65,East,90,0.0,1.0,99,0.00,,,0.72,meteohub,2013-08-23 04:02:00,
2013-08-22 22:07:00,65.1,64.8,29.65,East,90,3.0,3.0,99,0.00,,,0.72,meteohub,2013-08-23 04:07:00,
2013-08-22 22:12:00,65.1,64.8,29.64,East,90,1.0,3.0,99,0.00,,,0.72,meteohub,2013-08-23 04:12:00,
2013-08-22 22:17:00,65.1,64.8,29.64,SE,135,3.0,4.0,99,0.00,,,0.72,meteohub,2013-08-23 04:17:00,
2013-08-22 22:22:00,65.3,64.9,29.64,South,180,0.0,5.0,99,0.00,,,0.72,meteohub,2013-08-23 04:22:00,
2013-08-22 22:27:00,65.1,64.6,29.64,South,180,0.0,5.0,98,0.00,,,0.72,meteohub,2013-08-23 04:27:00,
2013-08-22 22:32:00,64.8,64.2,29.64,North,0,0.0,5.0,98,0.00,,,0.72,meteohub,2013-08-23 04:32:00,
2013-08-22 22:37:00,64.8,64.2,29.63,SW,225,0.0,1.0,98,0.00,,,0.72,meteohub,2013-08-23 04:37:00,
2013-08-22 22:42:00,64.6,64.0,29.63,West,270,0.0,0.0,98,0.00,,,0.72,meteohub,2013-08-23 04:42:00,
2013-08-22 22:47:00,64.6,64.0,29.63,West,270,0.0,0.0,98,0.00,,,0.72,meteohub,2013-08-23 04:47:00,
2013-08-22 22:52:00,64.4,63.9,29.62,North,0,2.0,0.0,98,0.00,,,0.72,meteohub,2013-08-23 04:52:00,
2013-08-22 22:58:00,64.4,64.0,29.63,North,0,0.0,2.0,99,0.00,,,0.72,meteohub,2013-08-23 04:58:00,
2013-08-22 23:03:00,64.4,64.0,29.62,North,0,0.0,2.0,99,0.00,,,0.72,meteohub,2013-08-23 05:03:00,
2013-08-22 23:08:00,64.2,63.3,29.63,SE,135,0.0,2.0,97,0.00,,,0.72,meteohub,2013-08-23 05:08:00,
2013-08-22 23:13:00,64.4,64.0,29.63,SW,225,0.0,0.0,99,0.00,,,0.72,meteohub,2013-08-23 05:13:00,
2013-08-22 23:18:00,64.2,63.3,29.63,NW,315,0.0,0.0,97,0.00,,,0.72,meteohub,2013-08-23 05:18:00,
2013-08-22 23:23:00,64.2,63.3,29.63,NW,315,0.0,0.0,97,0.00,,,0.72,meteohub,2013-08-23 05:23:00,
2013-08-22 23:28:00,64.2,63.3,29.62,SE,135,0.0,0.0,97,0.00,,,0.72,meteohub,2013-08-23 05:28:00,
2013-08-22 23:33:00,64.2,63.3,29.63,SE,135,0.0,0.0,97,0.00,,,0.72,meteohub,2013-08-23 05:33:00,
2013-08-22 23:38:00,64.2,63.3,29.63,SE,135,0.0,0.0,97,0.00,,,0.72,meteohub,2013-08-23 05:38:00,
2013-08-22 23:43:00,64.2,63.3,29.63,NE,45,0.0,0.0,97,0.00,,,0.72,meteohub,2013-08-23 05:43:00,
2013-08-22 23:48:00,64.2,63.3,29.63,NE,45,0.0,0.0,97,0.00,,,0.72,meteohub,2013-08-23 05:48:00,
2013-08-22 23:53:00,64.0,63.1,29.62,NE,45,0.0,0.0,97,0.00,,,0.72,meteohub,2013-08-23 05:53:00,
2013-08-22 23:58:00,64.0,63.1,29.62,NE,45,0.0,0.0,97,0.00,,,0.72,meteohub,2013-08-23 05:58:00,